This demonstration page uses our WeatherBlox Daily Observations layout. Learn more.

Hourly Observations for March 21, 2016

Temp ( °F °C ) Dew Point ( °F °C ) Humidity (%) Winds ( mph kmh ) Pressure ( in mb ) Visibility ( mi km ) Precip ( " mm )
12:15 am 00:15 Cloudy 36 2 34 1 93 93 Calm 30 1016 10 16.09344 0 0
12:40 am 00:40 Cloudy 36 2 34 1 93 93 Calm 30 1016 10 16.09344 0 0
12:55 am 00:55 Cloudy 36 2 34 1 93 93 W 3 6 30 1016 10 16.09344 0 0
1:15 am 01:15 Cloudy 36 2 34 1 93 93 Calm 29.97 1015 10 16.09344 0 0
1:35 am 01:35 Cloudy 37 3 34 1 87 87 Calm 29.97 1015 10 16.09344 0 0
1:55 am 01:55 Cloudy 37 3 36 2 93 93 W 3 6 29.97 1015 10 16.09344 0 0
2:15 am 02:15 Cloudy 37 3 36 2 93 93 Calm 29.97 1015 10 16.09344 0 0
2:35 am 02:35 Cloudy 37 3 36 2 93 93 Calm 29.97 1015 10 16.09344 0 0
2:55 am 02:55 Cloudy 37 3 36 2 93 93 W 3 6 29.94 1014 10 16.09344 0 0
3:15 am 03:15 Cloudy 37 3 36 2 93 93 W 3 6 29.94 1014 10 16.09344 0 0
3:35 am 03:35 Mostly Cloudy 36 2 34 1 93 93 W 3 6 29.94 1014 10 16.09344 0 0
3:55 am 03:55 Mostly Cloudy 36 2 34 1 93 93 Calm 29.94 1014 10 16.09344 0 0
4:15 am 04:15 Cloudy 36 2 36 2 100 100 W 3 6 29.94 1014 10 16.09344 0 0
4:35 am 04:35 Cloudy 37 3 36 2 93 93 W 6 9 29.94 1014 10 16.09344 0 0
4:55 am 04:55 Cloudy 37 3 36 2 93 93 WNW 7 11 29.94 1014 10 16.09344 0 0
5:15 am 05:15 Cloudy 39 4 36 2 87 87 NNW 6 9 29.94 1014 10 16.09344 0 0
5:35 am 05:35 Cloudy 39 4 34 1 81 81 NNW 14 22 29.94 1014 10 16.09344 0 0
5:55 am 05:55 Mostly Cloudy 39 4 32 0 75 75 NNW 14 22 29.94 1014 10 16.09344 0 0
6:15 am 06:15 Mostly Cloudy 37 3 32 0 81 81 NNW 12 19 29.94 1014 10 16.09344 0 0
6:35 am 06:35 Partly Cloudy 37 3 32 0 81 81 NW 6 9 29.97 1015 10 16.09344 0 0
6:55 am 06:55 Clear 36 2 32 0 87 87 NNW 8 13 29.97 1015 10 16.09344 0 0
7:15 am 07:15 Partly Cloudy 37 3 32 0 81 81 NNW 8 13 29.97 1015 10 16.09344 0 0
7:35 am 07:35 Mostly Cloudy 37 3 32 0 81 81 NNW 6 9 29.97 1015 10 16.09344 0 0
7:55 am 07:55 Mostly Cloudy 37 3 32 0 81 81 NNW 6 9 30 1016 10 16.09344 0 0
8:15 am 08:15 Sunny 39 4 32 0 75 75 NW 7 11 30 1016 10 16.09344 0 0
8:35 am 08:35 Sunny 41 5 32 0 70 70 NW 8 13 30 1016 10 16.09344 0 0
8:55 am 08:55 Sunny 41 5 32 0 70 70 NW 13 20 30 1016 10 16.09344 0 0
9:15 am 09:15 Sunny 41 5 30 -1 66 66 NW 17 28 30 1016 10 16.09344 0 0
9:35 am 09:35 Sunny 43 6 27 -3 53 53 NNW 21 33 30 1016 10 16.09344 0 0
9:55 am 09:55 Sunny 43 6 28 -2 57 57 NNW 21 33 30.03 1017 10 16.09344 0.01 0.254
10:15 am 10:15 Sunny 43 6 27 -3 53 53 NW 22 35 30.03 1017 10 16.09344 0 0
10:35 am 10:35 Sunny 43 6 28 -2 57 57 NW 23 37 30.03 1017 10 16.09344 0 0
10:55 am 10:55 Sunny 45 7 23 -5 42 42 NNW 24 39 30.03 1017 10 16.09344 0 0
11:15 am 11:15 Partly Cloudy 45 7 23 -5 42 42 NNW 23 37 30.03 1017 10 16.09344 0 0
11:35 am 11:35 Partly Cloudy 45 7 28 -2 53 53 NW 18 30 30.06 1018 10 16.09344 0 0
11:55 am 11:55 Partly Cloudy 46 8 27 -3 46 46 NNW 17 28 30.03 1017 10 16.09344 0 0
12:15 pm 12:15 Partly Cloudy 46 8 27 -3 46 46 NW 13 20 30.03 1017 10 16.09344 0 0
12:35 pm 12:35 Partly Cloudy 46 8 27 -3 46 46 WNW 18 30 30.03 1017 10 16.09344 0 0
12:55 pm 12:55 Mostly Cloudy 46 8 28 -2 50 50 WNW 16 26 30.03 1017 10 16.09344 0 0
1:15 pm 13:15 Mostly Cloudy 48 9 28 -2 46 46 NW 24 39 30.03 1017 10 16.09344 0 0
1:35 pm 13:35 Partly Cloudy 50 10 28 -2 43 43 WNW 22 35 30 1016 10 16.09344 0 0
1:55 pm 13:55 Partly Cloudy 50 10 28 -2 43 43 W 22 35 29.97 1015 10 16.09344 0 0
2:15 pm 14:15 Partly Cloudy 50 10 28 -2 43 43 WNW 24 39 29.97 1015 10 16.09344 0 0
2:35 pm 14:35 Sunny 52 11 28 -2 41 41 WNW 17 28 29.97 1015 10 16.09344 0 0
2:55 pm 14:55 Mostly Cloudy 52 11 28 -2 41 41 WNW 21 33 29.97 1015 10 16.09344 0 0
3:15 pm 15:15 Mostly Cloudy 52 11 28 -2 41 41 WNW 21 33 29.97 1015 10 16.09344 0 0
3:35 pm 15:35 Mostly Cloudy 52 11 27 -3 38 38 WNW 20 31 29.97 1015 10 16.09344 0 0
3:55 pm 15:55 Mostly Cloudy 52 11 28 -2 41 41 WNW 22 35 29.97 1015 10 16.09344 0 0
4:15 pm 16:15 Mostly Cloudy 52 11 27 -3 38 38 W 23 37 29.97 1015 10 16.09344 0 0
4:35 pm 16:35 Partly Cloudy 52 11 27 -3 38 38 WNW 25 41 29.97 1015 10 16.09344 0 0
4:55 pm 16:55 Mostly Cloudy 52 11 28 -2 41 41 W 22 35 29.97 1015 10 16.09344 0 0
5:15 pm 17:15 Partly Cloudy 52 11 27 -3 38 38 NW 22 35 29.97 1015 10 16.09344 0 0
5:35 pm 17:35 Sunny 50 10 25 -4 37 37 NW 22 35 29.97 1015 10 16.09344 0 0
5:55 pm 17:55 Sunny 50 10 27 -3 40 40 NW 25 41 30 1016 10 16.09344 0 0
6:15 pm 18:15 Sunny 48 9 23 -5 37 37 NNW 20 31 30.03 1017 10 16.09344 0 0
6:35 pm 18:35 Sunny 46 8 23 -5 40 40 NNW 18 30 30.06 1018 10 16.09344 0 0
6:55 pm 18:55 Sunny 46 8 25 -4 43 43 NW 14 22 30.06 1018 10 16.09344 0 0
7:15 pm 19:15 Sunny 45 7 23 -5 42 42 NW 10 17 30.09 1019 10 16.09344 0 0
7:35 pm 19:35 Clear 45 7 25 -4 46 46 NW 15 24 30.09 1019 10 16.09344 0 0
7:55 pm 19:55 Clear 45 7 23 -5 42 42 NW 8 13 30.09 1019 10 16.09344 0 0
8:15 pm 20:15 Clear 43 6 25 -4 49 49 NW 7 11 30.12 1020 10 16.09344 0 0
8:35 pm 20:35 Clear 43 6 27 -3 53 53 WNW 7 11 30.12 1020 10 16.09344 0 0
8:55 pm 20:55 Clear 43 6 27 -3 53 53 NW 9 15 30.12 1020 10 16.09344 0 0
9:15 pm 21:15 Clear 43 6 25 -4 49 49 NW 9 15 30.15 1021 10 16.09344 0 0
9:35 pm 21:35 Clear 41 5 25 -4 53 53 NW 5 7 30.15 1021 10 16.09344 0 0
9:55 pm 21:55 Clear 41 5 27 -3 57 57 WNW 3 6 30.15 1021 10 16.09344 0 0
10:15 pm 22:15 Clear 37 3 28 -2 70 70 W 3 6 30.15 1021 10 16.09344 0 0
10:35 pm 22:35 Clear 37 3 27 -3 65 65 W 5 7 30.15 1021 10 16.09344 0 0
10:55 pm 22:55 Clear 36 2 28 -2 75 75 W 5 7 30.15 1021 10 16.09344 0 0
11:15 pm 23:15 Clear 37 3 30 -1 75 75 W 3 6 30.15 1021 10 16.09344 0 0
11:35 pm 23:35 Clear 36 2 30 -1 81 81 W 3 6 30.18 1022 10 16.09344 0 0
11:55 pm 23:55 Clear 36 2 30 -1 81 81 W 5 7 30.18 1022 10 16.09344 0 0

Powered by AerisWeather